Time,TemperatureF,DewpointF,PressureIn,WindDirection,WindDirectionDegrees,WindSpeedMPH,WindSpeedGustMPH,Humidity,HourlyPrecipIn,Conditions,Clouds,dailyrainin,SoftwareType,DateUTC
2013-10-09 00:01:00,64.0,48.5,29.01,South,180,12.7,12.7,57,0.00,CLR,,0.00,WeatherDisplay:10.37,2013-10-09 05:01:00,
2013-10-09 00:06:00,64.0,48.5,29.01,South,180,12.7,12.7,57,0.00,CLR,,0.00,WeatherDisplay:10.37,2013-10-09 05:06:00,
2013-10-09 00:11:00,64.0,47.5,29.01,South,180,15.0,15.0,55,0.00,CLR,,0.00,WeatherDisplay:10.37,2013-10-09 05:11:00,
2013-10-09 00:16:00,64.0,48.0,29.01,South,180,12.7,12.7,56,0.00,CLR,,0.00,WeatherDisplay:10.37,2013-10-09 05:16:00,
2013-10-09 00:21:00,64.0,48.0,29.02,South,180,12.7,12.7,56,0.00,CLR,,0.00,WeatherDisplay:10.37,2013-10-09 05:21:00,
2013-10-09 00:26:00,64.0,47.5,29.02,South,180,12.7,12.7,55,0.00,CLR,,0.00,WeatherDisplay:10.37,2013-10-09 05:26:00,
2013-10-09 00:31:00,64.0,47.1,29.02,South,180,13.8,13.8,54,0.00,CLR,,0.00,WeatherDisplay:10.37,2013-10-09 05:31:00,
2013-10-09 00:36:00,63.9,46.9,29.02,South,180,12.7,12.7,54,0.00,CLR,,0.00,WeatherDisplay:10.37,2013-10-09 05:36:00,
2013-10-09 00:41:00,64.0,47.1,29.02,South,180,12.7,12.7,54,0.00,CLR,,0.00,WeatherDisplay:10.37,2013-10-09 05:41:00,
2013-10-09 00:46:00,63.9,46.4,29.02,South,180,12.7,12.7,53,0.00,CLR,,0.00,WeatherDisplay:10.37,2013-10-09 05:46:00,
2013-10-09 00:51:00,63.9,46.4,29.02,South,180,10.4,10.4,53,0.00,CLR,,0.00,WeatherDisplay:10.37,2013-10-09 05:51:00,
2013-10-09 00:56:00,63.7,47.2,29.02,South,180,9.2,9.2,55,0.00,CLR,,0.00,WeatherDisplay:10.37,2013-10-09 05:56:00,
2013-10-09 01:01:00,63.7,47.2,29.03,South,180,8.1,8.1,55,0.00,CLR,,0.00,WeatherDisplay:10.37,2013-10-09 06:01:00,
2013-10-09 01:06:00,63.7,47.2,29.03,South,180,8.1,8.1,55,0.00,CLR,,0.00,WeatherDisplay:10.37,2013-10-09 06:06:00,
2013-10-09 01:11:00,63.5,46.6,29.04,South,180,9.2,9.2,54,0.00,CLR,,0.00,WeatherDisplay:10.37,2013-10-09 06:11:00,
2013-10-09 01:16:00,63.3,47.3,29.04,South,180,8.1,8.1,56,0.00,CLR,,0.00,WeatherDisplay:10.37,2013-10-09 06:16:00,
2013-10-09 01:21:00,63.1,47.7,29.04,South,180,8.1,8.1,57,0.00,CLR,,0.00,WeatherDisplay:10.37,2013-10-09 06:21:00,
2013-10-09 01:26:00,63.0,47.5,29.04,South,180,6.9,6.9,57,0.00,CLR,,0.00,WeatherDisplay:10.37,2013-10-09 06:26:00,
2013-10-09 01:31:00,62.8,47.3,29.04,South,180,8.1,8.1,57,0.00,CLR,,0.00,WeatherDisplay:10.37,2013-10-09 06:31:00,
2013-10-09 01:36:00,62.8,48.7,29.05,South,180,8.1,8.1,60,0.00,CLR,,0.00,WeatherDisplay:10.37,2013-10-09 06:36:00,
2013-10-09 01:41:00,62.6,49.4,29.05,South,180,8.1,8.1,62,0.00,CLR,,0.00,WeatherDisplay:10.37,2013-10-09 06:41:00,
2013-10-09 01:46:00,62.4,50.1,29.05,South,180,8.1,8.1,64,0.00,CLR,,0.00,WeatherDisplay:10.37,2013-10-09 06:46:00,
2013-10-09 01:51:00,62.2,49.9,29.05,South,180,8.1,8.1,64,0.00,CLR,,0.00,WeatherDisplay:10.37,2013-10-09 06:51:00,
2013-10-09 01:56:00,62.1,49.7,29.05,South,180,8.1,8.1,64,0.00,CLR,,0.00,WeatherDisplay:10.37,2013-10-09 06:56:00,
2013-10-09 02:01:00,62.1,50.2,29.05,South,180,8.1,8.1,65,0.00,CLR,,0.00,WeatherDisplay:10.37,2013-10-09 07:01:00,
2013-10-09 02:06:00,62.1,50.2,29.06,South,180,8.1,8.1,65,0.00,CLR,,0.00,WeatherDisplay:10.37,2013-10-09 07:06:00,
2013-10-09 02:11:00,61.9,49.6,29.06,SSE,158,8.1,8.1,64,0.00,CLR,,0.00,WeatherDisplay:10.37,2013-10-09 07:11:00,
2013-10-09 02:16:00,61.7,49.4,29.06,South,180,8.1,8.1,64,0.00,CLR,,0.00,WeatherDisplay:10.37,2013-10-09 07:16:00,
2013-10-09 02:21:00,61.7,49.4,29.06,SSE,158,8.1,8.1,64,0.00,CLR,,0.00,WeatherDisplay:10.37,2013-10-09 07:21:00,
2013-10-09 02:26:00,61.9,50.0,29.06,South,180,8.1,8.1,65,0.00,CLR,,0.00,WeatherDisplay:10.37,2013-10-09 07:26:00,
2013-10-09 02:31:00,61.9,50.4,29.06,SE,135,8.1,8.1,66,0.00,CLR,,0.00,WeatherDisplay:10.37,2013-10-09 07:31:00,
2013-10-09 02:36:00,61.9,51.6,29.06,SE,135,9.2,9.2,69,0.00,CLR,,0.00,WeatherDisplay:10.37,2013-10-09 07:36:00,
2013-10-09 02:41:00,61.7,51.4,29.06,SE,135,8.1,8.1,69,0.00,CLR,,0.00,WeatherDisplay:10.37,2013-10-09 07:41:00,
2013-10-09 02:46:00,61.7,51.8,29.06,SE,135,8.1,8.1,70,0.00,CLR,,0.00,WeatherDisplay:10.37,2013-10-09 07:46:00,
2013-10-09 02:51:00,61.5,51.3,29.06,SE,135,8.1,8.1,69,0.00,CLR,,0.00,WeatherDisplay:10.37,2013-10-09 07:51:00,
2013-10-09 02:56:00,61.5,52.0,29.06,SSE,158,6.9,6.9,71,0.00,CLR,,0.00,WeatherDisplay:10.37,2013-10-09 07:56:00,
2013-10-09 03:01:00,61.7,49.8,29.06,South,180,6.9,6.9,65,0.00,CLR,,0.00,WeatherDisplay:10.37,2013-10-09 08:01:00,
2013-10-09 03:06:00,61.7,49.8,29.06,South,180,6.9,6.9,65,0.00,CLR,,0.00,WeatherDisplay:10.37,2013-10-09 08:06:00,
2013-10-09 03:11:00,62.1,48.4,29.07,South,180,5.8,5.8,61,0.00,CLR,,0.00,WeatherDisplay:10.37,2013-10-09 08:11:00,
2013-10-09 03:16:00,61.9,47.8,29.07,South,180,5.8,5.8,60,0.00,CLR,,0.00,WeatherDisplay:10.37,2013-10-09 08:16:00,
2013-10-09 03:21:00,61.7,47.2,29.07,South,180,5.8,5.8,59,0.00,CLR,,0.00,WeatherDisplay:10.37,2013-10-09 08:21:00,
2013-10-09 03:26:00,61.7,47.2,29.06,South,180,5.8,5.8,59,0.00,CLR,,0.00,WeatherDisplay:10.37,2013-10-09 08:26:00,
2013-10-09 03:31:00,61.7,47.7,29.07,South,180,5.8,5.8,60,0.00,CLR,,0.00,WeatherDisplay:10.37,2013-10-09 08:31:00,
2013-10-09 03:36:00,61.7,47.2,29.07,South,180,8.1,8.1,59,0.00,CLR,,0.00,WeatherDisplay:10.37,2013-10-09 08:36:00,
2013-10-09 03:41:00,61.7,47.7,29.07,South,180,8.1,8.1,60,0.00,CLR,,0.00,WeatherDisplay:10.37,2013-10-09 08:41:00,
2013-10-09 03:46:00,61.7,48.1,29.07,South,180,8.1,8.1,61,0.00,CLR,,0.00,WeatherDisplay:10.37,2013-10-09 08:46:00,
2013-10-09 03:51:00,61.7,48.1,29.07,South,180,8.3,8.3,61,0.00,CLR,,0.00,WeatherDisplay:10.37,2013-10-09 08:51:00,
2013-10-09 03:56:00,61.7,48.1,29.07,South,180,9.2,9.2,61,0.00,CLR,,0.00,WeatherDisplay:10.37,2013-10-09 08:56:00,
2013-10-09 04:01:00,61.9,48.3,29.07,South,180,9.2,9.2,61,0.00,CLR,,0.00,WeatherDisplay:10.37,2013-10-09 09:01:00,
2013-10-09 04:06:00,61.9,48.3,29.07,South,180,9.2,9.2,61,0.00,CLR,,0.00,WeatherDisplay:10.37,2013-10-09 09:06:00,
2013-10-09 04:11:00,61.3,48.6,29.07,South,180,9.2,9.2,63,0.00,CLR,,0.00,WeatherDisplay:10.37,2013-10-09 09:11:00,
2013-10-09 04:16:00,61.3,49.9,29.07,South,180,6.9,6.9,66,0.00,CLR,,0.00,WeatherDisplay:10.37,2013-10-09 09:16:00,
2013-10-09 04:21:00,61.3,49.9,29.07,SW,225,8.1,8.1,66,0.00,CLR,,0.00,WeatherDisplay:10.37,2013-10-09 09:21:00,
2013-10-09 04:26:00,61.3,49.9,29.08,SE,135,10.4,10.4,66,0.00,CLR,,0.00,WeatherDisplay:10.37,2013-10-09 09:26:00,
2013-10-09 04:31:00,61.3,50.3,29.08,South,180,9.8,9.8,67,0.00,CLR,,0.00,WeatherDisplay:10.37,2013-10-09 09:31:00,
2013-10-09 04:36:00,61.3,50.3,29.08,South,180,10.4,10.4,67,0.00,CLR,,0.00,WeatherDisplay:10.37,2013-10-09 09:36:00,
2013-10-09 04:41:00,61.3,50.3,29.08,South,180,9.2,9.2,67,0.00,CLR,,0.00,WeatherDisplay:10.37,2013-10-09 09:41:00,
2013-10-09 04:46:00,61.0,51.9,29.08,South,180,8.1,8.1,72,0.00,CLR,,0.00,WeatherDisplay:10.37,2013-10-09 09:46:00,
2013-10-09 04:51:00,60.1,52.1,29.08,SE,135,5.8,5.8,75,0.00,CLR,,0.00,WeatherDisplay:10.37,2013-10-09 09:51:00,
2013-10-09 04:56:00,59.5,52.0,29.08,East,90,5.8,5.8,76,0.00,CLR,,0.00,WeatherDisplay:10.37,2013-10-09 09:56:00,
2013-10-09 05:01:00,61.3,53.3,29.08,SE,135,9.2,9.2,75,0.00,CLR,,0.00,WeatherDisplay:10.37,2013-10-09 10:01:00,
2013-10-09 05:06:00,59.2,52.0,29.08,SE,135,9.2,9.2,77,0.00,CLR,,0.00,WeatherDisplay:10.37,2013-10-09 10:06:00,
2013-10-09 05:11:00,60.6,52.6,29.08,SE,135,6.9,6.9,75,0.00,CLR,,0.00,WeatherDisplay:10.37,2013-10-09 10:11:00,
2013-10-09 05:16:00,59.5,51.6,29.08,SE,135,5.8,5.8,75,0.00,CLR,,0.00,WeatherDisplay:10.37,2013-10-09 10:16:00,
2013-10-09 05:21:00,57.4,50.2,29.08,SE,135,5.8,5.8,77,0.00,CLR,,0.00,WeatherDisplay:10.37,2013-10-09 10:21:00,
2013-10-09 05:26:00,57.2,51.8,29.08,South,180,6.9,6.9,82,0.00,CLR,,0.00,WeatherDisplay:10.37,2013-10-09 10:26:00,
2013-10-09 05:31:00,57.4,50.6,29.08,SE,135,9.2,9.2,78,0.00,CLR,,0.00,WeatherDisplay:10.37,2013-10-09 10:31:00,
2013-10-09 05:36:00,57.4,49.9,29.09,SE,135,9.2,9.2,76,0.00,CLR,,0.00,WeatherDisplay:10.37,2013-10-09 10:36:00,
2013-10-09 05:41:00,57.2,50.4,29.09,SE,135,10.4,10.4,78,0.00,CLR,,0.00,WeatherDisplay:10.37,2013-10-09 10:41:00,
2013-10-09 05:46:00,57.2,50.1,29.09,SE,135,9.2,9.2,77,0.00,CLR,,0.00,WeatherDisplay:10.37,2013-10-09 10:46:00,
2013-10-09 05:51:00,56.8,50.1,29.09,SE,135,10.4,10.4,78,0.00,CLR,,0.00,WeatherDisplay:10.37,2013-10-09 10:51:00,
2013-10-09 05:56:00,56.8,50.7,29.09,South,180,9.2,9.2,80,0.00,CLR,,0.00,WeatherDisplay:10.37,2013-10-09 10:56:00,
2013-10-09 06:01:00,56.8,50.1,29.09,SE,135,9.2,9.2,78,0.00,CLR,,0.00,WeatherDisplay:10.37,2013-10-09 11:01:00,
2013-10-09 06:06:00,56.8,50.1,29.09,SE,135,9.2,9.2,78,0.00,CLR,,0.00,WeatherDisplay:10.37,2013-10-09 11:06:00,
2013-10-09 06:11:00,56.8,50.4,29.09,SE,135,9.2,9.2,79,0.00,CLR,,0.00,WeatherDisplay:10.37,2013-10-09 11:11:00,
2013-10-09 06:16:00,56.7,49.9,29.09,SE,135,8.1,8.1,78,0.00,CLR,,0.00,WeatherDisplay:10.37,2013-10-09 11:16:00,
2013-10-09 06:21:00,56.7,50.6,29.08,South,180,9.2,9.2,80,0.00,CLR,,0.00,WeatherDisplay:10.37,2013-10-09 11:21:00,
2013-10-09 06:26:00,56.8,50.7,29.09,SE,135,9.2,9.2,80,0.00,CLR,,0.00,WeatherDisplay:10.37,2013-10-09 11:26:00,
2013-10-09 06:31:00,56.8,50.7,29.09,SE,135,8.1,8.1,80,0.00,CLR,,0.00,WeatherDisplay:10.37,2013-10-09 11:31:00,
2013-10-09 06:36:00,56.8,50.7,29.09,SSE,158,10.4,10.4,80,0.00,CLR,,0.00,WeatherDisplay:10.37,2013-10-09 11:36:00,
2013-10-09 06:41:00,57.6,51.1,29.09,SE,135,12.7,12.7,79,0.00,CLR,,0.00,WeatherDisplay:10.37,2013-10-09 11:41:00,
2013-10-09 06:46:00,57.7,50.6,29.09,SE,135,12.7,12.7,77,0.00,CLR,,0.00,WeatherDisplay:10.37,2013-10-09 11:46:00,
2013-10-09 06:51:00,57.9,51.1,29.09,South,180,13.8,13.8,78,0.00,CLR,,0.00,WeatherDisplay:10.37,2013-10-09 11:51:00,
2013-10-09 06:56:00,57.9,51.1,29.09,South,180,13.8,13.8,78,0.00,CLR,,0.00,WeatherDisplay:10.37,2013-10-09 11:56:00,
2013-10-09 07:01:00,59.7,52.1,29.09,South,180,15.0,15.0,76,0.00,CLR,,0.00,WeatherDisplay:10.37,2013-10-09 12:01:00,
2013-10-09 07:03:00,59.7,52.1,29.09,South,180,15.0,15.0,76,0.00,CLR,,0.00,WeatherDisplay:10.37,2013-10-09 12:03:00,
2013-10-09 07:08:00,57.7,50.6,29.09,SE,135,15.0,15.0,77,0.00,CLR,,0.00,WeatherDisplay:10.37,2013-10-09 12:08:00,
2013-10-09 07:13:00,57.6,50.0,29.09,South,180,13.8,13.8,76,0.00,CLR,,0.00,WeatherDisplay:10.37,2013-10-09 12:13:00,
2013-10-09 07:18:00,57.6,50.4,29.09,SE,135,15.0,15.0,77,0.00,CLR,,0.00,WeatherDisplay:10.37,2013-10-09 12:18:00,
2013-10-09 07:23:00,57.4,50.2,29.09,SE,135,13.8,13.8,77,0.00,CLR,,0.00,WeatherDisplay:10.37,2013-10-09 12:23:00,
2013-10-09 07:28:00,57.4,50.2,29.10,SSE,158,12.7,12.7,77,0.00,CLR,,0.00,WeatherDisplay:10.37,2013-10-09 12:28:00,
2013-10-09 07:33:00,57.4,50.6,29.09,SE,135,15.0,15.0,78,0.00,CLR,,0.00,WeatherDisplay:10.37,2013-10-09 12:33:00,
2013-10-09 07:38:00,57.2,50.7,29.10,SE,135,13.8,13.8,79,0.00,CLR,,0.00,WeatherDisplay:10.37,2013-10-09 12:38:00,
2013-10-09 07:43:00,57.2,50.1,29.09,SE,135,15.2,15.2,77,0.00,CLR,,0.00,WeatherDisplay:10.37,2013-10-09 12:43:00,
2013-10-09 07:48:00,57.4,50.6,29.10,SE,135,15.0,15.0,78,0.00,CLR,,0.00,WeatherDisplay:10.37,2013-10-09 12:48:00,
2013-10-09 07:53:00,57.4,49.9,29.10,SSE,158,15.0,15.0,76,0.00,CLR,,0.00,WeatherDisplay:10.37,2013-10-09 12:53:00,
2013-10-09 07:58:00,57.2,50.1,29.10,South,180,15.0,15.0,77,0.00,CLR,,0.00,WeatherDisplay:10.37,2013-10-09 12:58:00,
2013-10-09 08:03:00,57.4,50.2,29.10,SSE,158,12.7,12.7,77,0.00,CLR,,0.00,WeatherDisplay:10.37,2013-10-09 13:03:00,
2013-10-09 08:08:00,57.7,50.6,29.10,SE,135,13.0,13.0,77,0.00,CLR,,0.00,WeatherDisplay:10.37,2013-10-09 13:08:00,
2013-10-09 08:13:00,57.7,50.9,29.10,South,180,13.8,13.8,78,0.00,CLR,,0.00,WeatherDisplay:10.37,2013-10-09 13:13:00,
2013-10-09 08:18:00,57.9,50.4,29.10,SE,135,16.1,16.1,76,0.00,CLR,,0.00,WeatherDisplay:10.37,2013-10-09 13:18:00,
2013-10-09 08:23:00,58.1,50.2,29.10,SE,135,16.1,16.1,75,0.00,CLR,,0.00,WeatherDisplay:10.37,2013-10-09 13:23:00,
2013-10-09 08:28:00,58.3,50.7,29.10,SSE,158,15.0,15.0,76,0.00,CLR,,0.00,WeatherDisplay:10.37,2013-10-09 13:28:00,
2013-10-09 08:33:00,58.3,50.7,29.10,South,180,16.1,16.1,76,0.00,CLR,,0.00,WeatherDisplay:10.37,2013-10-09 13:33:00,
2013-10-09 08:38:00,58.3,50.7,29.11,SE,135,15.0,15.0,76,0.00,CLR,,0.00,WeatherDisplay:10.37,2013-10-09 13:38:00,
2013-10-09 08:43:00,58.5,50.9,29.11,South,180,15.0,15.0,76,0.00,CLR,,0.00,WeatherDisplay:10.37,2013-10-09 13:43:00,
2013-10-09 08:48:00,58.6,51.1,29.11,SE,135,13.8,13.8,76,0.00,CLR,,0.00,WeatherDisplay:10.37,2013-10-09 13:48:00,
2013-10-09 08:53:00,60.4,52.5,29.11,SSE,158,13.8,13.8,75,0.00,CLR,,0.00,WeatherDisplay:10.37,2013-10-09 13:53:00,
2013-10-09 08:58:00,60.6,52.6,29.11,SE,135,13.8,13.8,75,0.00,CLR,,0.00,WeatherDisplay:10.37,2013-10-09 13:58:00,
2013-10-09 09:03:00,60.8,52.5,29.12,South,180,12.7,12.7,74,0.00,CLR,,0.00,WeatherDisplay:10.37,2013-10-09 14:03:00,
2013-10-09 09:08:00,60.8,52.1,29.12,SE,135,13.8,13.8,73,0.00,CLR,,0.00,WeatherDisplay:10.37,2013-10-09 14:08:00,
2013-10-09 09:13:00,61.0,51.9,29.12,South,180,15.0,15.0,72,0.00,CLR,,0.00,WeatherDisplay:10.37,2013-10-09 14:13:00,
2013-10-09 09:18:00,61.2,52.1,29.12,SE,135,13.8,13.8,72,0.00,CLR,,0.00,WeatherDisplay:10.37,2013-10-09 14:18:00,
2013-10-09 09:23:00,61.5,52.4,29.12,SE,135,12.7,12.7,72,0.00,CLR,,0.00,WeatherDisplay:10.37,2013-10-09 14:23:00,
2013-10-09 09:28:00,61.3,52.2,29.12,SE,135,12.7,12.7,72,0.00,CLR,,0.00,WeatherDisplay:10.37,2013-10-09 14:28:00,
2013-10-09 09:33:00,61.3,52.6,29.12,SE,135,10.4,10.4,73,0.00,CLR,,0.00,WeatherDisplay:10.37,2013-10-09 14:33:00,
2013-10-09 09:38:00,61.5,53.2,29.12,South,180,11.5,11.5,74,0.00,CLR,,0.00,WeatherDisplay:10.37,2013-10-09 14:38:00,
2013-10-09 09:43:00,59.9,50.8,29.12,South,180,13.8,13.8,72,0.00,CLR,,0.00,WeatherDisplay:10.37,2013-10-09 14:43:00,
2013-10-09 09:48:00,60.4,50.6,29.12,SSE,158,12.7,12.7,70,0.00,CLR,,0.00,WeatherDisplay:10.37,2013-10-09 14:48:00,
2013-10-09 09:53:00,59.5,50.1,29.13,South,180,12.7,12.7,71,0.00,CLR,,0.00,WeatherDisplay:10.37,2013-10-09 14:53:00,
2013-10-09 09:58:00,59.9,51.2,29.13,SE,135,11.5,11.5,73,0.00,CLR,,0.00,WeatherDisplay:10.37,2013-10-09 14:58:00,
2013-10-09 10:03:00,59.9,50.8,29.13,SE,135,12.7,12.7,72,0.00,CLR,,0.00,WeatherDisplay:10.37,2013-10-09 15:03:00,
2013-10-09 10:08:00,60.1,51.4,29.13,SSE,158,12.7,12.7,73,0.00,CLR,,0.00,WeatherDisplay:10.37,2013-10-09 15:08:00,
2013-10-09 10:13:00,60.1,51.8,29.13,South,180,10.4,10.4,74,0.00,CLR,,0.00,WeatherDisplay:10.37,2013-10-09 15:13:00,
2013-10-09 10:18:00,61.5,52.8,29.13,South,180,10.4,10.4,73,0.00,CLR,,0.00,WeatherDisplay:10.37,2013-10-09 15:18:00,
2013-10-09 10:23:00,61.7,53.0,29.13,SE,135,9.2,9.2,73,0.00,CLR,,0.00,WeatherDisplay:10.37,2013-10-09 15:23:00,
2013-10-09 10:28:00,63.1,52.8,29.14,South,180,10.4,10.4,69,0.00,CLR,,0.00,WeatherDisplay:10.37,2013-10-09 15:28:00,
2013-10-09 10:33:00,64.4,52.8,29.13,South,180,8.1,8.1,66,0.00,CLR,,0.00,WeatherDisplay:10.37,2013-10-09 15:33:00,
2013-10-09 10:38:00,64.4,51.5,29.13,South,180,17.3,17.3,63,0.00,CLR,,0.00,WeatherDisplay:10.37,2013-10-09 15:38:00,
2013-10-09 10:43:00,64.4,52.4,29.13,South,180,13.8,13.8,65,0.00,CLR,,0.00,WeatherDisplay:10.37,2013-10-09 15:43:00,
2013-10-09 10:48:00,64.4,52.4,29.13,SE,135,13.8,13.8,65,0.00,CLR,,0.00,WeatherDisplay:10.37,2013-10-09 15:48:00,
2013-10-09 10:53:00,64.2,52.6,29.14,South,180,12.7,12.7,66,0.00,CLR,,0.00,WeatherDisplay:10.37,2013-10-09 15:53:00,
2013-10-09 10:58:00,64.8,52.3,29.14,SW,225,11.5,11.5,64,0.00,CLR,,0.00,WeatherDisplay:10.37,2013-10-09 15:58:00,
2013-10-09 11:03:00,65.1,52.2,29.13,South,180,12.7,12.7,63,0.00,CLR,,0.00,WeatherDisplay:10.37,2013-10-09 16:03:00,
2013-10-09 11:08:00,64.8,52.3,29.14,South,180,12.7,12.7,64,0.00,CLR,,0.00,WeatherDisplay:10.37,2013-10-09 16:08:00,
2013-10-09 11:13:00,65.3,52.8,29.14,SW,225,9.2,9.2,64,0.00,CLR,,0.00,WeatherDisplay:10.37,2013-10-09 16:13:00,
2013-10-09 11:18:00,65.8,52.9,29.14,South,180,10.4,10.4,63,0.00,CLR,,0.00,WeatherDisplay:10.37,2013-10-09 16:18:00,
2013-10-09 11:23:00,65.8,52.5,29.14,South,180,10.4,10.4,62,0.00,CLR,,0.00,WeatherDisplay:10.37,2013-10-09 16:23:00,
2013-10-09 11:28:00,67.1,52.7,29.13,SW,225,8.1,8.1,60,0.00,CLR,,0.00,WeatherDisplay:10.37,2013-10-09 16:28:00,
2013-10-09 11:33:00,67.8,53.4,29.14,South,180,9.2,9.2,60,0.00,CLR,,0.00,WeatherDisplay:10.37,2013-10-09 16:33:00,
2013-10-09 11:38:00,68.2,53.8,29.13,South,180,6.9,6.9,60,0.00,CLR,,0.00,WeatherDisplay:10.37,2013-10-09 16:38:00,
2013-10-09 11:43:00,67.5,53.1,29.14,South,180,10.4,10.4,60,0.00,CLR,,0.00,WeatherDisplay:10.37,2013-10-09 16:43:00,
2013-10-09 11:48:00,67.6,53.3,29.13,South,180,12.7,12.7,60,0.00,CLR,,0.00,WeatherDisplay:10.37,2013-10-09 16:48:00,
2013-10-09 11:53:00,68.4,53.5,29.13,South,180,8.1,8.1,59,0.00,CLR,,0.00,WeatherDisplay:10.37,2013-10-09 16:53:00,
2013-10-09 11:58:00,69.1,53.7,29.13,SW,225,12.7,12.7,58,0.00,CLR,,0.00,WeatherDisplay:10.37,2013-10-09 16:58:00,
2013-10-09 12:03:00,69.3,53.4,29.13,South,180,11.5,11.5,57,0.00,CLR,,0.00,WeatherDisplay:10.37,2013-10-09 17:03:00,
2013-10-09 12:08:00,69.6,53.7,29.12,South,180,10.4,10.4,57,0.00,CLR,,0.00,WeatherDisplay:10.37,2013-10-09 17:08:00,
2013-10-09 12:13:00,69.4,53.5,29.12,South,180,19.6,19.6,57,0.00,CLR,,0.00,WeatherDisplay:10.37,2013-10-09 17:13:00,
2013-10-09 12:18:00,70.7,53.2,29.12,SW,225,11.5,11.5,54,0.00,CLR,,0.00,WeatherDisplay:10.37,2013-10-09 17:18:00,
2013-10-09 12:23:00,71.2,53.2,29.12,South,180,12.7,12.7,53,0.00,CLR,,0.00,WeatherDisplay:10.37,2013-10-09 17:23:00,
2013-10-09 12:28:00,71.2,52.2,29.12,South,180,13.8,13.8,51,0.00,CLR,,0.00,WeatherDisplay:10.37,2013-10-09 17:28:00,
2013-10-09 12:33:00,71.2,52.7,29.12,South,180,17.3,17.3,52,0.00,CLR,,0.00,WeatherDisplay:10.37,2013-10-09 17:33:00,
2013-10-09 12:38:00,70.9,52.4,29.12,South,180,18.4,18.4,52,0.00,CLR,,0.00,WeatherDisplay:10.37,2013-10-09 17:38:00,
2013-10-09 12:43:00,71.2,52.7,29.12,South,180,13.8,13.8,52,0.00,CLR,,0.00,WeatherDisplay:10.37,2013-10-09 17:43:00,
2013-10-09 12:48:00,71.2,52.2,29.12,South,180,20.7,20.7,51,0.00,CLR,,0.00,WeatherDisplay:10.37,2013-10-09 17:48:00,
2013-10-09 12:53:00,71.1,52.5,29.11,South,180,13.0,13.0,52,0.00,CLR,,0.00,WeatherDisplay:10.37,2013-10-09 17:53:00,
2013-10-09 12:58:00,71.1,52.0,29.11,South,180,20.7,20.7,51,0.00,CLR,,0.00,WeatherDisplay:10.37,2013-10-09 17:58:00,
2013-10-09 13:03:00,71.8,51.6,29.10,South,180,17.3,17.3,49,0.00,CLR,,0.00,WeatherDisplay:10.37,2013-10-09 18:03:00,
2013-10-09 13:08:00,71.6,51.4,29.11,South,180,18.4,18.4,49,0.00,CLR,,0.00,WeatherDisplay:10.37,2013-10-09 18:08:00,
2013-10-09 13:13:00,71.6,51.4,29.10,South,180,18.4,18.4,49,0.00,CLR,,0.00,WeatherDisplay:10.37,2013-10-09 18:13:00,
2013-10-09 13:18:00,71.8,51.6,29.10,South,180,19.6,19.6,49,0.00,CLR,,0.00,WeatherDisplay:10.37,2013-10-09 18:18:00,
2013-10-09 13:23:00,71.8,52.7,29.10,SE,135,16.1,16.1,51,0.00,CLR,,0.00,WeatherDisplay:10.37,2013-10-09 18:23:00,
2013-10-09 13:28:00,71.4,52.3,29.10,South,180,19.6,19.6,51,0.00,CLR,,0.00,WeatherDisplay:10.37,2013-10-09 18:28:00,
2013-10-09 13:33:00,71.4,51.3,29.10,SW,225,20.7,20.7,49,0.00,CLR,,0.00,WeatherDisplay:10.37,2013-10-09 18:33:00,
2013-10-09 13:38:00,72.0,50.6,29.10,South,180,17.3,17.3,47,0.00,CLR,,0.00,WeatherDisplay:10.37,2013-10-09 18:38:00,
2013-10-09 13:43:00,72.3,51.5,29.10,South,180,13.8,13.8,48,0.00,CLR,,0.00,WeatherDisplay:10.37,2013-10-09 18:43:00,
2013-10-09 13:48:00,71.8,52.1,29.10,South,180,17.3,17.3,50,0.00,CLR,,0.00,WeatherDisplay:10.37,2013-10-09 18:48:00,
2013-10-09 13:53:00,71.4,52.9,29.10,South,180,17.3,17.3,52,0.00,CLR,,0.00,WeatherDisplay:10.37,2013-10-09 18:53:00,
2013-10-09 13:58:00,70.5,53.6,29.10,SE,135,18.4,18.4,55,0.00,CLR,,0.00,WeatherDisplay:10.37,2013-10-09 18:58:00,
2013-10-09 14:03:00,70.3,52.9,29.10,South,180,16.1,16.1,54,0.00,CLR,,0.00,WeatherDisplay:10.37,2013-10-09 19:03:00,
2013-10-09 14:08:00,70.2,53.7,29.10,South,180,19.6,19.6,56,0.00,CLR,,0.00,WeatherDisplay:10.37,2013-10-09 19:08:00,
2013-10-09 14:13:00,70.5,53.6,29.09,South,180,19.6,19.6,55,0.00,CLR,,0.00,WeatherDisplay:10.37,2013-10-09 19:13:00,
2013-10-09 14:18:00,71.2,52.2,29.10,South,180,19.6,19.6,51,0.00,CLR,,0.00,WeatherDisplay:10.37,2013-10-09 19:18:00,
2013-10-09 14:23:00,72.1,51.9,29.10,SE,135,16.1,16.1,49,0.00,CLR,,0.00,WeatherDisplay:10.37,2013-10-09 19:23:00,
2013-10-09 14:28:00,72.5,51.7,29.10,South,180,17.3,17.3,48,0.00,CLR,,0.00,WeatherDisplay:10.37,2013-10-09 19:28:00,
2013-10-09 14:33:00,72.3,52.1,29.10,South,180,15.0,15.0,49,0.00,CLR,,0.00,WeatherDisplay:10.37,2013-10-09 19:33:00,
2013-10-09 14:38:00,72.5,51.1,29.10,South,180,15.0,15.0,47,0.00,CLR,,0.00,WeatherDisplay:10.37,2013-10-09 19:38:00,
2013-10-09 14:43:00,72.5,51.1,29.10,SSE,158,18.4,18.4,47,0.00,CLR,,0.00,WeatherDisplay:10.37,2013-10-09 19:43:00,
2013-10-09 14:48:00,73.0,51.0,29.10,South,180,13.7,13.7,46,0.00,CLR,,0.00,WeatherDisplay:10.37,2013-10-09 19:48:00,
2013-10-09 14:53:00,73.2,51.8,29.10,South,180,12.7,12.7,47,0.00,CLR,,0.00,WeatherDisplay:10.37,2013-10-09 19:53:00,
2013-10-09 14:58:00,73.0,51.0,29.10,South,180,12.7,12.7,46,0.00,CLR,,0.00,WeatherDisplay:10.37,2013-10-09 19:58:00,
2013-10-09 15:03:00,72.9,50.3,29.10,South,180,17.3,17.3,45,0.00,CLR,,0.00,WeatherDisplay:10.37,2013-10-09 20:03:00,
2013-10-09 15:08:00,73.0,51.0,29.10,South,180,16.1,16.1,46,0.00,CLR,,0.00,WeatherDisplay:10.37,2013-10-09 20:08:00,
2013-10-09 15:13:00,73.2,51.2,29.10,South,180,15.0,15.0,46,0.00,CLR,,0.00,WeatherDisplay:10.37,2013-10-09 20:13:00,
2013-10-09 15:18:00,73.4,51.9,29.10,NE,45,12.7,12.7,47,0.00,CLR,,0.00,WeatherDisplay:10.37,2013-10-09 20:18:00,
2013-10-09 15:23:00,73.2,50.6,29.10,South,180,15.0,15.0,45,0.00,CLR,,0.00,WeatherDisplay:10.37,2013-10-09 20:23:00,
2013-10-09 15:28:00,73.4,51.4,29.10,South,180,15.0,15.0,46,0.00,CLR,,0.00,WeatherDisplay:10.37,2013-10-09 20:28:00,
2013-10-09 15:33:00,73.6,50.3,29.10,South,180,17.3,17.3,44,0.00,CLR,,0.00,WeatherDisplay:10.37,2013-10-09 20:33:00,
2013-10-09 15:38:00,73.6,50.3,29.10,South,180,13.8,13.8,44,0.00,CLR,,0.00,WeatherDisplay:10.37,2013-10-09 20:38:00,
2013-10-09 15:43:00,73.8,51.1,29.10,South,180,13.8,13.8,45,0.00,CLR,,0.00,WeatherDisplay:10.37,2013-10-09 20:43:00,
2013-10-09 15:48:00,73.8,50.5,29.10,South,180,16.1,16.1,44,0.00,CLR,,0.00,WeatherDisplay:10.37,2013-10-09 20:48:00,
2013-10-09 15:53:00,74.1,50.8,29.10,South,180,15.0,15.0,44,0.00,CLR,,0.00,WeatherDisplay:10.37,2013-10-09 20:53:00,
2013-10-09 15:58:00,74.1,51.4,29.10,South,180,13.8,13.8,45,0.00,CLR,,0.00,WeatherDisplay:10.37,2013-10-09 20:58:00,
2013-10-09 16:03:00,73.6,53.2,29.10,South,180,10.4,10.4,49,0.00,CLR,,0.00,WeatherDisplay:10.37,2013-10-09 21:03:00,
2013-10-09 16:08:00,73.2,51.8,29.10,South,180,17.3,17.3,47,0.00,CLR,,0.00,WeatherDisplay:10.37,2013-10-09 21:08:00,
2013-10-09 16:13:00,73.2,51.8,29.09,South,180,13.0,13.0,47,0.00,CLR,,0.00,WeatherDisplay:10.37,2013-10-09 21:13:00,
2013-10-09 16:18:00,73.4,51.4,29.10,South,180,15.0,15.0,46,0.00,CLR,,0.00,WeatherDisplay:10.37,2013-10-09 21:18:00,
2013-10-09 16:23:00,73.0,53.3,29.09,South,180,13.8,13.8,50,0.00,CLR,,0.00,WeatherDisplay:10.37,2013-10-09 21:23:00,
2013-10-09 16:28:00,73.4,51.9,29.09,SW,225,15.0,15.0,47,0.00,CLR,,0.00,WeatherDisplay:10.37,2013-10-09 21:28:00,
2013-10-09 16:33:00,73.9,51.3,29.09,SSE,158,12.7,12.7,45,0.00,CLR,,0.00,WeatherDisplay:10.37,2013-10-09 21:33:00,
2013-10-09 16:38:00,73.8,51.1,29.10,SW,225,13.8,13.8,45,0.00,CLR,,0.00,WeatherDisplay:10.37,2013-10-09 21:38:00,
2013-10-09 16:43:00,73.8,52.8,29.09,South,180,8.1,9.2,48,0.00,CLR,,0.00,WeatherDisplay:10.37,2013-10-09 21:43:00,
2013-10-09 16:48:00,73.6,53.2,29.10,South,180,12.7,12.7,49,0.00,CLR,,0.00,WeatherDisplay:10.37,2013-10-09 21:48:00,
2013-10-09 16:53:00,73.2,53.5,29.09,South,180,10.4,10.4,50,0.00,CLR,,0.00,WeatherDisplay:10.37,2013-10-09 21:53:00,
2013-10-09 16:58:00,73.2,53.5,29.09,South,180,10.4,10.4,50,0.00,CLR,,0.00,WeatherDisplay:10.37,2013-10-09 21:58:00,
2013-10-09 17:03:00,73.0,53.8,29.09,South,180,10.4,10.4,51,0.00,CLR,,0.00,WeatherDisplay:10.37,2013-10-09 22:03:00,
2013-10-09 17:08:00,73.0,52.7,29.10,South,180,11.5,11.5,49,0.00,CLR,,0.00,WeatherDisplay:10.37,2013-10-09 22:08:00,
2013-10-09 17:13:00,71.8,55.7,29.09,South,180,10.4,10.4,57,0.00,CLR,,0.00,WeatherDisplay:10.37,2013-10-09 22:13:00,
2013-10-09 17:18:00,71.6,54.6,29.09,SE,135,10.4,10.4,55,0.00,CLR,,0.00,WeatherDisplay:10.37,2013-10-09 22:18:00,
2013-10-09 17:23:00,70.9,55.8,29.09,SE,135,11.5,11.5,59,0.00,CLR,,0.00,WeatherDisplay:10.37,2013-10-09 22:23:00,
2013-10-09 17:28:00,71.4,54.9,29.09,SSE,158,11.5,11.5,56,0.00,CLR,,0.00,WeatherDisplay:10.37,2013-10-09 22:28:00,
2013-10-09 17:33:00,70.0,58.1,29.09,SE,135,8.1,8.1,66,0.00,CLR,,0.00,WeatherDisplay:10.37,2013-10-09 22:33:00,
2013-10-09 17:38:00,69.3,57.4,29.09,SSE,158,10.4,10.4,66,0.00,CLR,,0.00,WeatherDisplay:10.37,2013-10-09 22:38:00,
2013-10-09 17:43:00,69.1,58.1,29.09,SSE,158,10.4,10.4,68,0.00,CLR,,0.00,WeatherDisplay:10.37,2013-10-09 22:43:00,
2013-10-09 17:48:00,68.9,57.5,29.09,South,180,10.4,10.4,67,0.00,CLR,,0.00,WeatherDisplay:10.37,2013-10-09 22:48:00,
2013-10-09 17:53:00,68.5,58.0,29.09,SE,135,10.4,10.4,69,0.00,CLR,,0.00,WeatherDisplay:10.37,2013-10-09 22:53:00,
2013-10-09 17:58:00,68.5,57.6,29.09,South,180,9.2,9.2,68,0.00,CLR,,0.00,WeatherDisplay:10.37,2013-10-09 22:58:00,
2013-10-09 18:03:00,68.4,58.6,29.09,South,180,6.9,6.9,71,0.00,CLR,,0.00,WeatherDisplay:10.37,2013-10-09 23:03:00,
2013-10-09 18:08:00,67.6,58.7,29.10,South,180,6.9,6.9,73,0.00,CLR,,0.00,WeatherDisplay:10.37,2013-10-09 23:08:00,
2013-10-09 18:13:00,67.1,58.5,29.09,South,180,6.9,6.9,74,0.00,CLR,,0.00,WeatherDisplay:10.37,2013-10-09 23:13:00,
2013-10-09 18:18:00,66.2,58.4,29.09,South,180,6.9,6.9,76,0.00,CLR,,0.00,WeatherDisplay:10.37,2013-10-09 23:18:00,
2013-10-09 18:23:00,65.8,58.1,29.09,SE,135,6.9,6.9,76,0.00,CLR,,0.00,WeatherDisplay:10.37,2013-10-09 23:23:00,
2013-10-09 18:28:00,65.5,58.1,29.09,South,180,6.9,6.9,77,0.00,CLR,,0.00,WeatherDisplay:10.37,2013-10-09 23:28:00,
2013-10-09 18:33:00,65.3,57.9,29.09,SE,135,6.9,6.9,77,0.00,CLR,,0.00,WeatherDisplay:10.37,2013-10-09 23:33:00,
2013-10-09 18:38:00,64.9,58.3,29.09,SE,135,6.9,6.9,79,0.00,CLR,,0.00,WeatherDisplay:10.37,2013-10-09 23:38:00,
2013-10-09 18:43:00,65.1,57.0,29.09,SE,135,6.9,6.9,75,0.00,CLR,,0.00,WeatherDisplay:10.37,2013-10-09 23:43:00,
2013-10-09 18:48:00,65.3,56.0,29.09,South,180,8.1,8.1,72,0.00,CLR,,0.00,WeatherDisplay:10.37,2013-10-09 23:48:00,
2013-10-09 18:53:00,65.8,53.3,29.09,South,180,8.1,8.1,64,0.00,CLR,,0.00,WeatherDisplay:10.37,2013-10-09 23:53:00,
2013-10-09 18:58:00,66.2,54.9,29.09,South,180,8.1,8.1,67,0.00,CLR,,0.00,WeatherDisplay:10.37,2013-10-09 23:58:00,
2013-10-09 19:03:00,65.3,57.5,29.09,SE,135,5.8,5.8,76,0.00,CLR,,0.00,WeatherDisplay:10.37,2013-10-10 00:03:00,
2013-10-09 19:08:00,64.8,57.0,29.09,SE,135,8.1,8.1,76,0.00,CLR,,0.00,WeatherDisplay:10.37,2013-10-10 00:08:00,
2013-10-09 19:13:00,64.2,57.6,29.09,South,180,5.8,5.8,79,0.00,CLR,,0.00,WeatherDisplay:10.37,2013-10-10 00:13:00,
2013-10-09 19:18:00,63.9,57.9,29.09,South,180,5.8,5.8,81,0.00,CLR,,0.00,WeatherDisplay:10.37,2013-10-10 00:18:00,
2013-10-09 19:23:00,63.7,57.7,29.09,SE,135,4.6,4.6,81,0.00,CLR,,0.00,WeatherDisplay:10.37,2013-10-10 00:23:00,
2013-10-09 19:28:00,63.1,55.8,29.09,South,180,3.5,3.5,77,0.00,CLR,,0.00,WeatherDisplay:10.37,2013-10-10 00:28:00,
2013-10-09 19:33:00,63.0,53.8,29.09,ESE,112,3.5,3.5,72,0.00,CLR,,0.00,WeatherDisplay:10.37,2013-10-10 00:33:00,
2013-10-09 19:38:00,62.8,53.2,29.09,South,180,3.5,3.5,71,0.00,CLR,,0.00,WeatherDisplay:10.37,2013-10-10 00:38:00,
2013-10-09 19:43:00,62.8,52.8,29.09,East,90,3.5,3.5,70,0.00,CLR,,0.00,WeatherDisplay:10.37,2013-10-10 00:43:00,
2013-10-09 19:48:00,62.4,52.5,29.09,East,90,3.5,3.5,70,0.00,CLR,,0.00,WeatherDisplay:10.37,2013-10-10 00:48:00,
2013-10-09 19:53:00,62.2,51.9,29.09,East,90,2.3,0.0,69,0.00,CLR,,0.00,WeatherDisplay:10.37,2013-10-10 00:53:00,
2013-10-09 19:58:00,61.7,51.4,29.09,SE,135,1.1,0.0,69,0.00,CLR,,0.00,WeatherDisplay:10.37,2013-10-10 00:58:00,
2013-10-09 20:03:00,61.7,51.8,29.09,SE,135,3.5,3.5,70,0.00,CLR,,0.00,WeatherDisplay:10.37,2013-10-10 01:03:00,
2013-10-09 20:08:00,61.9,52.8,29.10,SE,135,3.8,3.8,72,0.00,CLR,,0.00,WeatherDisplay:10.37,2013-10-10 01:08:00,
2013-10-09 20:13:00,62.1,53.7,29.10,SE,135,3.5,3.5,74,0.00,CLR,,0.00,WeatherDisplay:10.37,2013-10-10 01:13:00,
2013-10-09 20:18:00,61.9,53.9,29.10,SE,135,3.5,3.5,75,0.00,CLR,,0.00,WeatherDisplay:10.37,2013-10-10 01:18:00,
2013-10-09 20:23:00,61.9,53.5,29.09,SE,135,5.8,5.8,74,0.00,CLR,,0.00,WeatherDisplay:10.37,2013-10-10 01:23:00,
2013-10-09 20:28:00,61.9,53.5,29.10,SE,135,3.5,3.5,74,0.00,CLR,,0.00,WeatherDisplay:10.37,2013-10-10 01:28:00,
2013-10-09 20:33:00,61.9,53.1,29.10,SE,135,5.8,5.8,73,0.00,CLR,,0.00,WeatherDisplay:10.37,2013-10-10 01:33:00,
2013-10-09 20:38:00,61.9,52.8,29.09,SE,135,5.8,5.8,72,0.00,CLR,,0.00,WeatherDisplay:10.37,2013-10-10 01:38:00,
2013-10-09 20:43:00,61.9,53.5,29.10,SE,135,5.8,5.8,74,0.00,CLR,,0.00,WeatherDisplay:10.37,2013-10-10 01:43:00,
2013-10-09 20:48:00,61.9,53.1,29.10,SE,135,5.8,5.8,73,0.00,CLR,,0.00,WeatherDisplay:10.37,2013-10-10 01:48:00,
2013-10-09 20:53:00,61.7,53.3,29.10,SE,135,3.5,3.5,74,0.00,CLR,,0.00,WeatherDisplay:10.37,2013-10-10 01:53:00,
2013-10-09 20:58:00,61.2,52.8,29.10,SE,135,5.8,5.8,74,0.00,CLR,,0.00,WeatherDisplay:10.37,2013-10-10 01:58:00,
2013-10-09 21:03:00,61.2,53.2,29.09,SE,135,5.8,5.8,75,0.00,CLR,,0.00,WeatherDisplay:10.37,2013-10-10 02:03:00,
2013-10-09 21:08:00,61.2,53.2,29.09,SE,135,5.8,5.8,75,0.00,CLR,,0.00,WeatherDisplay:10.37,2013-10-10 02:08:00,
2013-10-09 21:13:00,62.2,53.8,29.10,SE,135,3.5,3.5,74,0.00,CLR,,0.00,WeatherDisplay:10.37,2013-10-10 02:13:00,
2013-10-09 21:18:00,62.2,53.5,29.10,SE,135,3.5,3.5,73,0.00,CLR,,0.00,WeatherDisplay:10.37,2013-10-10 02:18:00,
2013-10-09 21:23:00,62.1,53.3,29.09,SE,135,3.5,3.5,73,0.00,CLR,,0.00,WeatherDisplay:10.37,2013-10-10 02:23:00,
2013-10-09 21:28:00,62.1,52.9,29.09,SE,135,3.5,3.5,72,0.00,CLR,,0.00,WeatherDisplay:10.37,2013-10-10 02:28:00,
2013-10-09 21:33:00,62.2,53.5,29.09,SSE,158,5.8,5.8,73,0.00,CLR,,0.00,WeatherDisplay:10.37,2013-10-10 02:33:00,
2013-10-09 21:38:00,62.1,54.8,29.10,SE,135,5.8,5.8,77,0.00,CLR,,0.00,WeatherDisplay:10.37,2013-10-10 02:38:00,
2013-10-09 21:43:00,62.1,55.1,29.09,SE,135,6.9,6.9,78,0.00,CLR,,0.00,WeatherDisplay:10.37,2013-10-10 02:43:00,
2013-10-09 21:48:00,62.2,53.8,29.10,SE,135,6.9,6.9,74,0.00,CLR,,0.00,WeatherDisplay:10.37,2013-10-10 02:48:00,
2013-10-09 21:53:00,62.1,55.1,29.10,SE,135,6.9,6.9,78,0.00,CLR,,0.00,WeatherDisplay:10.37,2013-10-10 02:53:00,
2013-10-09 21:58:00,62.1,54.0,29.10,SE,135,6.9,6.9,75,0.00,CLR,,0.00,WeatherDisplay:10.37,2013-10-10 02:58:00,
2013-10-09 22:03:00,62.1,53.7,29.10,South,180,8.1,8.1,74,0.00,CLR,,0.00,WeatherDisplay:10.37,2013-10-10 03:03:00,
2013-10-09 22:08:00,62.2,53.8,29.10,SE,135,6.9,6.9,74,0.00,CLR,,0.00,WeatherDisplay:10.37,2013-10-10 03:08:00,
2013-10-09 22:13:00,62.4,53.6,29.10,SSE,158,8.3,8.3,73,0.00,CLR,,0.00,WeatherDisplay:10.37,2013-10-10 03:13:00,
2013-10-09 22:18:00,62.4,54.8,29.10,SE,135,5.8,5.8,76,0.00,CLR,,0.00,WeatherDisplay:10.37,2013-10-10 03:18:00,
2013-10-09 22:23:00,61.7,53.7,29.11,ENE,68,3.5,0.0,75,0.00,CLR,,0.00,WeatherDisplay:10.37,2013-10-10 03:23:00,
2013-10-09 22:28:00,58.5,50.6,29.11,NE,45,2.3,2.3,75,0.00,CLR,,0.00,WeatherDisplay:10.37,2013-10-10 03:28:00,
2013-10-09 22:33:00,57.6,50.0,29.10,NE,45,2.3,2.3,76,0.00,CLR,,0.00,WeatherDisplay:10.37,2013-10-10 03:33:00,
2013-10-09 22:38:00,57.2,49.7,29.11,SE,135,3.5,0.0,76,0.00,CLR,,0.00,WeatherDisplay:10.37,2013-10-10 03:38:00,
2013-10-09 22:43:00,56.7,49.5,29.11,NE,45,1.1,0.0,77,0.00,CLR,,0.00,WeatherDisplay:10.37,2013-10-10 03:43:00,
2013-10-09 22:48:00,56.1,49.0,29.11,North,0,1.1,0.0,77,0.00,CLR,,0.00,WeatherDisplay:10.37,2013-10-10 03:48:00,
2013-10-09 22:53:00,55.2,48.1,29.11,North,0,1.1,1.1,77,0.00,CLR,,0.00,WeatherDisplay:10.37,2013-10-10 03:53:00,
2013-10-09 22:58:00,54.5,48.1,29.11,North,0,2.3,2.3,79,0.00,CLR,,0.00,WeatherDisplay:10.37,2013-10-10 03:58:00,
2013-10-09 23:01:00,54.5,48.1,29.11,NE,45,3.5,3.5,79,0.00,CLR,,0.00,WeatherDisplay:10.37,2013-10-10 04:01:00,
2013-10-09 23:02:00,54.5,48.1,29.11,NE,45,3.5,3.5,79,0.00,CLR,,0.00,WeatherDisplay:10.37,2013-10-10 04:02:00,
2013-10-09 23:07:00,55.0,49.0,29.11,NE,45,3.5,3.5,80,0.00,CLR,,0.00,WeatherDisplay:10.37,2013-10-10 04:07:00,
2013-10-09 23:12:00,55.2,48.8,29.10,North,0,3.5,3.5,79,0.00,CLR,,0.00,WeatherDisplay:10.37,2013-10-10 04:12:00,
2013-10-09 23:17:00,55.2,48.5,29.11,NE,45,3.5,3.5,78,0.00,CLR,,0.00,WeatherDisplay:10.37,2013-10-10 04:17:00,
2013-10-09 23:22:00,55.2,48.5,29.11,NE,45,3.5,3.5,78,0.00,CLR,,0.00,WeatherDisplay:10.37,2013-10-10 04:22:00,
2013-10-09 23:27:00,55.0,48.0,29.11,East,90,1.1,0.0,77,0.00,CLR,,0.00,WeatherDisplay:10.37,2013-10-10 04:27:00,
2013-10-09 23:32:00,54.9,47.8,29.11,SE,135,1.1,0.0,77,0.00,CLR,,0.00,WeatherDisplay:10.37,2013-10-10 04:32:00,
2013-10-09 23:37:00,54.7,48.0,29.11,East,90,3.5,0.0,78,0.00,CLR,,0.00,WeatherDisplay:10.37,2013-10-10 04:37:00,
2013-10-09 23:42:00,54.3,47.6,29.11,NE,45,1.1,1.1,78,0.00,CLR,,0.00,WeatherDisplay:10.37,2013-10-10 04:42:00,
2013-10-09 23:47:00,54.0,47.3,29.11,NE,45,2.3,2.3,78,0.00,CLR,,0.00,WeatherDisplay:10.37,2013-10-10 04:47:00,
2013-10-09 23:52:00,53.6,47.2,29.11,NE,45,1.1,0.0,79,0.00,CLR,,0.00,WeatherDisplay:10.37,2013-10-10 04:52:00,
2013-10-09 23:57:00,53.2,47.2,29.11,NE,45,1.6,1.6,80,0.00,CLR,,0.00,WeatherDisplay:10.37,2013-10-10 04:57:00,